Wind_Speed
37 37 37 36 36 35 34 34 33 33 33 32 32 32 32 32 32 32 32 32 31 32 32 32 32 33 34 34 35 36 36 36 37 37 37 37 37 37 38 39 39 40 40
39 39 38 37 36 36 35 34 34 34 34 34 33 33 33 34 34 33 33 33 33 33 34 34 35 35 36 36 37 38 38 39 39 39 39 39 39 39 40 41 42 42 43
40 39 39 38 37 36 36 35 35 35 35 34 34 34 34 35 35 35 35 35 35 35 36 36 36 37 37 38 39 39 39 40 40 40 41 41 41 41 41 42 43 44 44
40 39 39 39 38 37 36 36 36 36 36 35 35 35 36 36 36 36 36 37 37 37 37 38 38 39 39 40 40 40 41 41 41 42 43 44 44 44 44 44 45 45 46
40 39 39 39 39 39 38 37 37 37 37 37 37 37 37 37 37 37 37 38 38 39 39 39 40 40 40 41 41 42 42 43 43 44 45 45 46 46 47 47 47 48 48
41 41 40 40 40 40 40 39 39 39 38 39 39 38 38 39 39 39 39 39 40 40 41 41 41 42 42 42 43 43 44 44 45 45 46 47 47 48 49 50 50 50 50
42 42 41 40 40 41 41 41 40 40 40 40 40 40 40 40 40 40 40 40 41 41 41 42 42 43 43 43 44 44 45 46 46 47 48 48 49 50 51 52 52 53 53
43 42 42 41 41 41 42 42 42 41 41 41 41 41 41 42 42 42 41 42 42 42 42 43 43 44 44 45 45 46 46 47 48 49 50 50 50 52 52 53 54 55 55
43 43 42 41 41 41 42 43 43 43 43 43 43 42 43 43 43 43 43 43 43 43 44 44 45 45 45 46 47 48 48 49 50 50 51 51 51 52 53 55 56 57 57
42 43 43 42 42 42 42 42 43 43 43 44 44 43 43 43 43 43 44 44 44 45 45 46 46 46 47 48 49 49 49 50 51 51 52 53 54 54 55 56 56 57 58
42 42 42 43 43 43 43 43 44 44 44 45 45 45 45 45 45 45 45 45 46 46 46 47 47 47 48 48 49 49 49 50 51 52 53 54 55 55 55 56 57 57 58
41 42 42 43 44 43 43 44 44 45 45 46 46 46 46 46 46 46 46 46 47 47 47 47 47 48 48 49 50 50 51 51 52 53 54 55 55 55 56 56 56 56 56
40 41 41 42 43 43 44 44 45 45 46 47 47 46 46 46 46 46 46 46 47 47 47 48 48 48 49 49 50 51 51 51 53 53 54 54 55 56 56 55 54 54 53
40 40 41 42 42 43 43 44 45 46 46 47 46 46 46 46 46 46 47 47 47 47 47 47 48 48 49 49 50 50 51 52 52 53 54 55 55 55 54 54 52 52 52
39 40 40 40 41 42 43 44 45 45 46 46 45 45 46 46 46 46 46 46 46 47 47 47 48 48 48 49 50 50 50 51 51 52 53 54 53 53 52 51 51 51 51
39 39 40 40 40 41 42 43 44 44 44 45 45 46 46 46 46 46 46 46 46 46 46 47 47 48 49 49 50 50 50 50 52 52 52 52 51 51 51 50 50 51 51
39 39 40 40 41 41 42 42 42 43 43 44 45 45 46 46 46 46 47 46 46 46 47 48 48 49 49 49 49 50 50 51 52 51 51 50 50 50 49 50 51 51 53
39 40 41 41 41 41 41 42 42 42 43 44 44 45 45 45 46 46 46 47 47 48 48 48 49 49 49 49 49 50 50 51 51 50 50 50 50 50 50 51 52 52 53
39 40 41 41 41 41 41 41 41 42 42 43 44 44 45 45 46 46 46 46 47 48 48 48 48 48 48 48 49 50 50 50 49 50 50 50 50 50 51 51 52 52 52
39 40 41 41 41 41 41 41 42 42 42 42 43 43 44 45 45 46 46 46 47 47 48 47 47 48 48 48 49 49 49 48 49 49 49 49 49 50 50 51 51 51 51
40 40 40 40 40 41 41 41 40 41 42 42 43 44 45 45 45 46 46 47 47 47 47 47 47 47 48 48 49 48 47 47 47 48 47 47 48 48 49 50 50 50 49
39 39 39 40 40 40 40 40 40 41 41 42 43 44 45 45 46 46 46 46 46 46 46 47 47 47 47 47 46 46 45 46 46 45 46 46 46 47 48 49 48 48 48
38 39 39 40 40 40 40 40 41 41 42 42 43 44 45 46 46 45 46 46 46 46 46 46 46 46 45 44 44 44 44 43 44 44 45 45 46 47 47 47 47 47 47
37 37 38 39 40 40 41 41 42 42 43 43 43 43 44 45 45 45 45 45 45 45 45 45 44 43 42 42 42 42 42 42 43 44 44 45 45 46 46 46 46 47 47
36 36 37 38 39 40 41 41 41 41 41 42 42 42 42 43 43 43 44 44 44 44 43 42 40 40 39 40 41 41 41 42 42 43 43 44 45 45 45 45 45 45 45
36 36 36 36 37 38 39 40 40 40 40 40 40 41 41 41 41 41 41 41 41 41 41 39 38 38 39 39 40 41 42 42 42 43 43 43 43 43 44 44 43 43 42
Wind_Direction
235 236 238 239 240 241 243 245 246 249 251 252 253 254 255 255 256 258 259 260 262 265 267 270 272 274 274 275 277 278 280 281 283 284 285 286 287 287 288 288 288 289 289
236 237 238 240 241 242 243 245 247 249 250 251 252 254 255 255 256 257 259 261 263 265 267 270 272 273 274 275 277 278 280 281 282 283 284 285 286 286 287 288 288 288 289
236 237 239 240 241 243 244 246 248 249 250 251 253 254 256 257 258 260 261 263 265 266 268 269 271 273 274 276 277 278 280 281 282 284 285 285 285 285 286 287 288 288 289
236 237 239 240 241 243 244 246 248 250 251 253 254 255 257 258 259 261 263 264 266 267 269 270 271 272 274 276 277 279 280 281 283 284 285 286 286 286 286 286 287 287 288
236 238 239 240 241 242 244 246 248 250 252 254 255 257 258 258 260 262 264 266 267 268 269 270 271 272 274 276 278 279 280 281 283 284 285 286 286 287 287 286 287 287 288
236 238 240 241 242 243 244 246 248 251 253 255 256 258 258 259 261 263 264 266 268 269 270 271 272 273 274 276 278 280 282 282 284 285 285 286 287 287 288 288 287 288 288
237 238 240 242 244 245 246 247 249 251 254 256 258 259 260 261 262 263 265 266 268 269 270 271 272 274 275 276 277 280 282 283 284 285 286 286 287 288 288 288 288 288 289
238 239 241 243 244 246 248 249 250 252 254 256 258 260 261 262 263 264 265 266 268 269 271 271 272 274 275 276 277 279 281 283 284 285 286 286 287 288 288 289 290 289 289
239 240 241 243 245 247 249 250 251 253 255 257 258 260 262 263 264 265 266 267 269 270 271 272 273 274 275 276 278 279 281 283 284 285 286 286 287 289 289 290 291 290 290
240 242 243 245 246 248 249 250 252 253 254 256 258 260 261 262 264 265 266 268 269 270 271 273 274 275 276 278 279 280 282 283 284 285 286 287 287 289 289 290 290 291 292
241 243 244 246 247 249 250 252 253 254 254 256 258 259 260 262 263 264 266 268 269 270 271 273 274 275 276 278 279 281 283 284 284 285 287 288 288 288 289 290 291 291 292
242 243 244 246 247 248 250 252 254 255 256 257 258 259 260 262 263 264 265 267 269 270 272 273 275 276 277 278 279 281 283 284 285 286 287 288 288 288 289 290 291 292 293
242 243 244 246 248 249 251 252 254 255 256 258 258 259 260 261 263 264 265 266 269 271 272 274 275 276 277 278 279 280 282 283 285 286 287 288 288 289 290 290 291 292 293
242 243 245 247 248 249 251 253 254 255 256 258 259 259 260 261 262 263 265 267 268 271 273 273 275 276 278 279 280 281 283 284 286 287 288 288 288 289 290 290 291 292 294
242 243 246 247 248 250 251 253 254 255 256 258 258 259 259 261 262 263 265 267 269 271 273 274 275 277 278 280 280 282 283 284 285 287 288 289 289 289 290 291 292 293 294
242 243 245 247 248 250 252 253 254 255 256 257 258 258 259 261 262 263 265 266 268 270 272 274 276 277 278 279 281 282 283 284 286 287 288 288 288 289 290 291 292 293 294
244 245 247 248 250 251 252 254 255 256 257 257 258 259 261 262 263 264 265 267 267 269 272 274 276 278 278 279 280 283 284 286 287 287 288 288 288 290 290 291 291 293 294
246 248 249 250 252 252 253 255 256 256 257 258 258 260 261 262 264 265 267 268 268 270 273 274 276 277 278 279 281 283 285 286 286 287 287 288 289 290 290 291 292 293 294
249 250 252 252 253 253 254 255 256 257 258 258 260 261 262 263 264 266 267 269 270 271 273 274 275 277 278 280 281 283 285 285 286 286 287 289 289 289 290 291 292 294 295
251 252 252 253 255 255 255 256 256 257 258 260 261 262 263 264 265 266 268 269 271 272 273 274 275 277 279 280 282 284 285 285 286 286 287 288 289 290 291 292 293 294 295
252 252 253 253 254 255 256 257 258 259 260 262 263 264 264 265 266 268 269 270 271 272 273 274 275 277 279 281 282 284 285 286 286 287 287 288 289 291 293 293 294 295 296
251 251 252 253 254 255 256 258 260 261 263 264 265 265 266 267 269 270 271 271 272 272 274 275 277 279 280 281 283 284 286 287 287 288 288 289 290 292 293 294 295 296 297
252 252 253 255 256 256 257 259 261 264 265 266 267 267 268 269 270 272 272 272 272 273 275 276 278 278 279 280 282 284 286 288 288 289 290 291 292 293 294 294 295 296 297
253 253 254 255 256 258 259 261 263 265 266 267 268 269 270 271 271 272 272 272 273 273 275 277 277 277 277 279 281 284 287 288 289 290 291 293 293 293 294 295 296 297 298
254 256 257 258 259 259 260 262 264 266 267 268 270 271 272 272 272 272 272 272 273 275 275 276 276 275 276 278 280 284 287 288 290 291 292 292 293 293 294 295 296 297 298
255 257 259 260 260 261 261 263 264 266 267 269 271 272 273 273 272 271 271 271 272 273 274 274 274 276 278 280 282 285 287 289 291 292 292 292 293 294 295 295 296 297 298
Height
5758 5762 5765 5769 5772 5776 5778 5781 5784 5786 5788 5789 5791 5792 5794 5795 5796 5798 5799 5800 5801 5801 5802 5802 5802 5802 5802 5802 5801 5800 5799 5798 5797 5796 5795 5794 5792 5790 5789 5787 5785 5783 5781
5750 5754 5758 5761 5765 5768 5771 5774 5776 5778 5780 5782 5784 5785 5786 5788 5789 5790 5791 5792 5793 5794 5794 5795 5794 5794 5794 5793 5793 5792 5791 5790 5788 5787 5786 5786 5785 5782 5780 5778 5776 5773 5771
5743 5747 5750 5754 5757 5761 5764 5766 5768 5770 5772 5774 5776 5777 5779 5780 5782 5783 5784 5785 5785 5786 5786 5786 5786 5786 5786 5785 5784 5783 5782 5781 5779 5778 5777 5775 5774 5773 5772 5769 5766 5763 5761
5735 5739 5742 5746 5749 5753 5756 5758 5760 5762 5764 5766 5768 5769 5771 5772 5774 5775 5775 5776 5777 5777 5778 5778 5777 5777 5777 5776 5775 5774 5773 5771 5770 5768 5766 5765 5763 5762 5761 5760 5756 5753 5751
5727 5731 5734 5738 5741 5744 5747 5750 5752 5754 5756 5758 5760 5761 5763 5764 5765 5766 5767 5767 5768 5768 5768 5768 5768 5768 5768 5767 5765 5764 5762 5761 5759 5758 5756 5754 5752 5750 5748 5747 5746 5743 5740
5718 5722 5726 5729 5732 5735 5738 5741 5744 5746 5748 5749 5751 5752 5754 5755 5756 5757 5758 5758 5759 5759 5759 5759 5759 5758 5758 5757 5755 5753 5752 5750 5748 5747 5745 5743 5741 5738 5735 5734 5732 5730 5728
5709 5713 5717 5721 5724 5727 5730 5732 5735 5737 5739 5740 5742 5743 5745 5746 5747 5748 5748 5749 5749 5749 5749 5749 5749 5748 5747 5746 5745 5743 5742 5740 5737 5735 5733 5731 5729 5726 5723 5720 5718 5716 5715
5700 5704 5708 5712 5715 5718 5720 5723 5725 5727 5729 5731 5732 5734 5735 5736 5737 5738 5738 5739 5739 5740 5739 5739 5738 5738 5737 5736 5734 5733 5731 5728 5726 5724 5721 5719 5716 5714 5710 5707 5704 5701 5700
5691 5695 5699 5703 5706 5708 5711 5713 5715 5718 5719 5721 5723 5724 5725 5726 5727 5728 5728 5729 5729 5729 5729 5728 5728 5727 5726 5725 5724 5722 5720 5717 5714 5712 5709 5707 5704 5701 5697 5694 5690 5686 5683
5682 5686 5690 5693 5696 5698 5701 5703 5705 5707 5709 5711 5712 5714 5715 5716 5716 5717 5718 5718 5719 5719 5718 5718 5717 5716 5715 5714 5712 5710 5708 5706 5703 5700 5698 5695 5691 5688 5685 5681 5676 5672 5667
5673 5676 5680 5683 5686 5688 5691 5693 5695 5696 5698 5700 5702 5703 5704 5705 5706 5706 5707 5707 5708 5707 5707 5707 5706 5705 5704 5702 5700 5698 5696 5694 5691 5688 5685 5682 5679 5675 5671 5667 5663 5658 5653
5663 5666 5670 5673 5675 5678 5680 5682 5684 5686 5688 5689 5691 5692 5693 5694 5695 5695 5696 5696 5696 5696 5696 5695 5694 5693 5692 5690 5688 5687 5684 5682 5679 5676 5673 5670 5666 5662 5658 5654 5649 5645 5640
5653 5656 5659 5662 5665 5668 5670 5672 5674 5675 5677 5678 5680 5681 5682 5683 5684 5684 5684 5685 5685 5685 5684 5684 5683 5681 5680 5678 5676 5674 5672 5669 5666 5663 5660 5657 5653 5649 5645 5640 5636 5632 5628
5643 5646 5649 5652 5655 5657 5660 5662 5663 5665 5666 5667 5669 5670 5671 5672 5672 5673 5673 5674 5674 5673 5673 5672 5671 5669 5668 5666 5664 5662 5659 5657 5654 5651 5647 5644 5640 5636 5632 5628 5624 5620 5616
5633 5636 5639 5642 5644 5647 5649 5651 5652 5654 5655 5657 5658 5659 5660 5660 5661 5662 5662 5662 5662 5662 5661 5660 5659 5657 5655 5653 5652 5650 5647 5645 5642 5638 5634 5630 5626 5622 5619 5615 5612 5608 5603
5623 5627 5629 5632 5634 5637 5639 5640 5642 5643 5644 5646 5647 5648 5649 5649 5650 5650 5651 5651 5651 5651 5650 5649 5647 5645 5643 5641 5639 5637 5635 5632 5629 5625 5622 5618 5614 5610 5607 5603 5599 5595 5591
5614 5617 5620 5622 5624 5626 5628 5630 5631 5632 5633 5635 5636 5637 5637 5638 5639 5639 5639 5639 5639 5639 5638 5637 5635 5634 5632 5629 5627 5625 5622 5619 5616 5612 5609 5606 5602 5598 5595 5592 5588 5583 5578
5605 5608 5610 5613 5615 5616 5618 5619 5621 5621 5622 5623 5624 5625 5626 5627 5627 5627 5628 5628 5627 5627 5626 5625 5623 5622 5620 5617 5615 5613 5610 5607 5603 5600 5597 5593 5590 5586 5583 5579 5576 5571 5566
5595 5598 5600 5602 5604 5606 5608 5609 5610 5611 5612 5613 5613 5614 5615 5615 5616 5616 5616 5616 5615 5615 5614 5612 5611 5609 5608 5605 5603 5600 5597 5594 5591 5588 5585 5581 5578 5574 5570 5566 5563 5559 5553
5585 5588 5590 5592 5594 5596 5597 5598 5600 5601 5602 5602 5603 5603 5604 5604 5604 5604 5604 5604 5603 5602 5601 5600 5599 5597 5595 5593 5590 5587 5584 5582 5579 5576 5572 5569 5565 5561 5557 5553 5549 5546 5541
5575 5577 5580 5582 5584 5585 5587 5588 5589 5590 5591 5592 5592 5592 5592 5592 5592 5592 5592 5592 5591 5590 5589 5588 5587 5585 5583 5580 5577 5574 5572 5569 5567 5564 5560 5557 5553 5549 5545 5541 5537 5532 5528
5565 5567 5570 5572 5573 5575 5576 5578 5579 5580 5580 5581 5581 5581 5581 5580 5580 5580 5580 5579 5579 5578 5577 5576 5575 5573 5570 5568 5565 5562 5560 5557 5554 5551 5548 5545 5541 5538 5533 5529 5525 5520 5516
5555 5557 5559 5561 5563 5564 5566 5567 5568 5568 5569 5569 5569 5569 5568 5568 5568 5568 5568 5567 5566 5566 5565 5564 5563 5561 5558 5556 5553 5551 5548 5545 5543 5540 5537 5533 5530 5526 5522 5518 5513 5509 5505
5545 5547 5549 5551 5552 5553 5554 5556 5557 5557 5558 5558 5557 5557 5556 5556 5555 5555 5554 5554 5554 5553 5553 5552 5550 5549 5546 5544 5542 5540 5537 5535 5532 5529 5526 5522 5518 5514 5510 5506 5502 5498 5493
5535 5537 5539 5540 5541 5543 5544 5544 5545 5546 5546 5546 5546 5545 5544 5544 5543 5543 5542 5542 5542 5541 5540 5540 5538 5537 5536 5534 5532 5529 5527 5524 5521 5518 5515 5511 5508 5503 5499 5495 5491 5487 5482
5526 5527 5529 5530 5531 5532 5533 5534 5534 5534 5535 5535 5534 5534 5533 5532 5532 5531 5531 5530 5530 5529 5528 5528 5527 5526 5525 5523 5521 5519 5516 5513 5510 5507 5504 5500 5496 5492 5488 5484 5480 5476 5471